• In Belgien
  • Länderverzeichnis
  • Für 7 Tage
  • Wassertemperatur
  • Satellitenkarten
  • Wetterkarte
  • Widgets
  • user-avatar
    Anmelden

    Stündliche Wetter Tibissa

    Heute, 20 August, Sonntag

    Zeit Temperatur Niederschläge Wind Luftdruck Luftfeuchtigkeit
    00:00 +29°C° 0 mm 3 m/S 688 mmHg 35%
    01:00 +28°C° 0 mm 2 m/S 688 mmHg 38%
    02:00 +28°C° 0 mm 2 m/S 688 mmHg 40%
    03:00 +27°C° 0 mm 2 m/S 688 mmHg 41%
    04:00 +27°C° 0 mm 2 m/S 688 mmHg 43%
    05:00 +26°C° 0 mm 2 m/S 688 mmHg 43%
    06:00 +26°C° 0 mm 1 m/S 688 mmHg 43%
    07:00 +26°C° 0 mm 1 m/S 688 mmHg 43%
    08:00 +28°C° 0 mm 2 m/S 688 mmHg 39%
    09:00 +29°C° 0 mm 2 m/S 689 mmHg 35%
    10:00 +30°C° 0 mm 2 m/S 689 mmHg 30%
    11:00 +31°C° 0 mm 2 m/S 689 mmHg 28%
    12:00 +34°C° 0 mm 2 m/S 689 mmHg 25%
    13:00 +35°C° 0 mm 2 m/S 689 mmHg 22%
    14:00 +35°C° 0 mm 3 m/S 689 mmHg 22%
    15:00 +35°C° 0 mm 3 m/S 689 mmHg 22%
    16:00 +35°C° 0 mm 4 m/S 688 mmHg 22%
    17:00 +34°C° 0 mm 4 m/S 688 mmHg 25%
    18:00 +33°C° 0 mm 5 m/S 688 mmHg 28%
    19:00 +32°C° 0 mm 6 m/S 688 mmHg 31%
    20:00 +30°C° 0 mm 5 m/S 688 mmHg 34%
    21:00 +29°C° 0 mm 5 m/S 689 mmHg 38%
    22:00 +27°C° 0 mm 4 m/S 689 mmHg 41%
    23:00 +27°C° 0 mm 4 m/S 689 mmHg 42%

    Morgen, 21 August, Montag

    Zeit Temperatur Niederschläge Wind Luftdruck Luftfeuchtigkeit
    00:00 +26°C° 0 mm 3 m/S 689 mmHg 43%
    01:00 +26°C° 0 mm 2 m/S 689 mmHg 44%
    02:00 +25°C° 0 mm 2 m/S 688 mmHg 45%
    03:00 +25°C° 0 mm 2 m/S 688 mmHg 45%
    04:00 +25°C° 0 mm 1 m/S 688 mmHg 46%
    05:00 +24°C° 0 mm 1 m/S 688 mmHg 46%
    06:00 +24°C° 0 mm 2 m/S 688 mmHg 46%
    07:00 +24°C° 0 mm 2 m/S 688 mmHg 45%
    08:00 +26°C° 0 mm 2 m/S 688 mmHg 40%
    09:00 +27°C° 0 mm 2 m/S 688 mmHg 35%
    10:00 +28°C° 0 mm 3 m/S 689 mmHg 30%
    11:00 +30°C° 0 mm 3 m/S 689 mmHg 28%
    12:00 +32°C° 0 mm 4 m/S 688 mmHg 26%
    13:00 +33°C° 0 mm 4 m/S 688 mmHg 24%
    14:00 +33°C° 0 mm 5 m/S 688 mmHg 23%
    15:00 +34°C° 0 mm 5 m/S 688 mmHg 23%
    16:00 +34°C° 0 mm 5 m/S 687 mmHg 22%
    17:00 +33°C° 0 mm 6 m/S 687 mmHg 23%
    18:00 +32°C° 0 mm 6 m/S 687 mmHg 25%
    19:00 +29°C° 0 mm 6 m/S 687 mmHg 27%
    20:00 +28°C° 0 mm 5 m/S 687 mmHg 31%
    21:00 +27°C° 0 mm 4 m/S 688 mmHg 34%
    22:00 +26°C° 0 mm 3 m/S 688 mmHg 38%
    23:00 +25°C° 0 mm 3 m/S 688 mmHg 41%

    übermorgen, 22 August, Dienstag

    Zeit Temperatur Niederschläge Wind Luftdruck Luftfeuchtigkeit
    00:00 +25°C° 0 mm 3 m/S 688 mmHg 44%
    01:00 +24°C° 0 mm 2 m/S 687 mmHg 47%
    02:00 +24°C° 0 mm 2 m/S 687 mmHg 49%
    03:00 +23°C° 0 mm 2 m/S 687 mmHg 52%
    04:00 +23°C° 0 mm 2 m/S 687 mmHg 55%
    05:00 +23°C° 0 mm 1 m/S 687 mmHg 55%
    06:00 +23°C° 0 mm 1 m/S 687 mmHg 56%
    07:00 +22°C° 0 mm 1 m/S 687 mmHg 56%
    08:00 +24°C° 0 mm 1 m/S 688 mmHg 48%
    09:00 +25°C° 0 mm 1 m/S 688 mmHg 41%
    10:00 +27°C° 0 mm 1 m/S 689 mmHg 34%
    11:00 +28°C° 0 mm 1 m/S 688 mmHg 30%
    12:00 +30°C° 0 mm 2 m/S 688 mmHg 26%
    13:00 +31°C° 0 mm 2 m/S 688 mmHg 22%
    14:00 +31°C° 0 mm 2 m/S 688 mmHg 20%
    15:00 +33°C° 0 mm 3 m/S 688 mmHg 19%
    16:00 +34°C° 0 mm 3 m/S 687 mmHg 17%
    17:00 +33°C° 0 mm 3 m/S 687 mmHg 18%
    18:00 +31°C° 0 mm 3 m/S 687 mmHg 19%
    19:00 +32°C° 0 mm 4 m/S 687 mmHg 19%
    20:00 +30°C° 0 mm 4 m/S 687 mmHg 24%
    21:00 +29°C° 0 mm 4 m/S 688 mmHg 29%
    22:00 +28°C° 0 mm 4 m/S 688 mmHg 34%
    23:00 +27°C° 0 mm 4 m/S 688 mmHg 42%

    23 August, Mittwoch

    Zeit Temperatur Niederschläge Wind Luftdruck Luftfeuchtigkeit
    00:00 +25°C° 0 mm 4 m/S 687 mmHg 50%
    01:00 +23°C° 0 mm 4 m/S 687 mmHg 59%
    02:00 +24°C° 0 mm 3 m/S 687 mmHg 62%
    03:00 +23°C° 0 mm 2 m/S 687 mmHg 65%
    04:00 +23°C° 0 mm 2 m/S 686 mmHg 68%
    05:00 +23°C° 0 mm 1 m/S 687 mmHg 67%
    06:00 +23°C° 0 mm 1 m/S 687 mmHg 67%
    07:00 +23°C° 0 mm 1 m/S 687 mmHg 66%
    08:00 +25°C° 0 mm 1 m/S 688 mmHg 58%
    09:00 +26°C° 0 mm 1 m/S 688 mmHg 49%
    10:00 +28°C° 0 mm 1 m/S 689 mmHg 41%
    11:00 +29°C° 0 mm 1 m/S 689 mmHg 36%
    12:00 +30°C° 0 mm 2 m/S 689 mmHg 31%
    13:00 +31°C° 0 mm 2 m/S 689 mmHg 26%
    14:00 +32°C° 0 mm 2 m/S 688 mmHg 24%
    15:00 +32°C° 0 mm 2 m/S 688 mmHg 23%
    16:00 +34°C° 0 mm 3 m/S 688 mmHg 21%
    17:00 +34°C° 0 mm 3 m/S 688 mmHg 22%
    18:00 +33°C° 0 mm 4 m/S 688 mmHg 23%
    19:00 +33°C° 0 mm 4 m/S 688 mmHg 24%
    20:00 +30°C° 0 mm 4 m/S 688 mmHg 29%
    21:00 +29°C° 0 mm 4 m/S 688 mmHg 34%
    22:00 +28°C° 0 mm 5 m/S 688 mmHg 39%
    23:00 +27°C° 0 mm 4 m/S 688 mmHg 46%

    24 August, Donnerstag

    Zeit Temperatur Niederschläge Wind Luftdruck Luftfeuchtigkeit
    00:00 +26°C° 0 mm 4 m/S 688 mmHg 53%
    01:00 +25°C° 0 mm 4 m/S 688 mmHg 61%
    02:00 +25°C° 0 mm 3 m/S 688 mmHg 63%
    03:00 +24°C° 0 mm 3 m/S 687 mmHg 66%
    04:00 +24°C° 0 mm 2 m/S 687 mmHg 68%
    05:00 +24°C° 0 mm 2 m/S 687 mmHg 68%
    06:00 +24°C° 0 mm 2 m/S 688 mmHg 68%
    07:00 +24°C° 0 mm 2 m/S 688 mmHg 68%
    08:00 +25°C° 0 mm 2 m/S 688 mmHg 60%
    09:00 +27°C° 0 mm 2 m/S 689 mmHg 52%
    10:00 +28°C° 0 mm 2 m/S 689 mmHg 44%
    11:00 +29°C° 0 mm 2 m/S 689 mmHg 39%
    12:00 +30°C° 0 mm 2 m/S 689 mmHg 34%
    13:00 +31°C° 0 mm 2 m/S 689 mmHg 29%
    14:00 +32°C° 0 mm 2 m/S 689 mmHg 27%
    15:00 +34°C° 0 mm 2 m/S 688 mmHg 25%
    16:00 +34°C° 0 mm 3 m/S 688 mmHg 22%
    17:00 +34°C° 0 mm 3 m/S 688 mmHg 24%
    18:00 +33°C° 0 mm 4 m/S 688 mmHg 25%
    19:00 +33°C° 0 mm 5 m/S 688 mmHg 26%
    20:00 +32°C° 0 mm 5 m/S 688 mmHg 32%
    21:00 +29°C° 0 mm 5 m/S 688 mmHg 38%
    22:00 +28°C° 0 mm 5 m/S 688 mmHg 44%
    23:00 +27°C° 0 mm 5 m/S 688 mmHg 48%

    25 August, Freitag

    Zeit Temperatur Niederschläge Wind Luftdruck Luftfeuchtigkeit
    00:00 +26°C° 0 mm 4 m/S 688 mmHg 52%
    01:00 +25°C° 0 mm 4 m/S 688 mmHg 56%
    02:00 +25°C° 0 mm 3 m/S 688 mmHg 58%
    03:00 +25°C° 0 mm 3 m/S 687 mmHg 59%
    04:00 +24°C° 0 mm 2 m/S 687 mmHg 61%
    05:00 +24°C° 0 mm 2 m/S 687 mmHg 61%
    06:00 +24°C° 0 mm 2 m/S 687 mmHg 60%
    07:00 +24°C° 0 mm 2 m/S 688 mmHg 60%
    08:00 +26°C° 0 mm 2 m/S 688 mmHg 53%
    09:00 +27°C° 0 mm 2 m/S 688 mmHg 46%
    10:00 +29°C° 0 mm 3 m/S 689 mmHg 40%
    11:00 +30°C° 0 mm 3 m/S 689 mmHg 36%
    12:00 +31°C° 0 mm 3 m/S 688 mmHg 32%
    13:00 +32°C° 0 mm 2 m/S 688 mmHg 29%
    14:00 +32°C° 0 mm 2 m/S 688 mmHg 27%
    15:00 +34°C° 0 mm 2 m/S 688 mmHg 25%
    16:00 +34°C° 0 mm 2 m/S 687 mmHg 24%
    17:00 +34°C° 0 mm 3 m/S 687 mmHg 25%
    18:00 +33°C° 0 mm 4 m/S 687 mmHg 26%
    19:00 +33°C° 0 mm 5 m/S 687 mmHg 26%
    20:00 +30°C° 0 mm 5 m/S 687 mmHg 30%
    21:00 +29°C° 0 mm 6 m/S 687 mmHg 34%
    22:00 +28°C° 0 mm 6 m/S 688 mmHg 38%
    23:00 +27°C° 0 mm 5 m/S 687 mmHg 41%
    Mehr zeigen